This is the latest recevied weather packets stored in our database for station/object IZ3LSV-13. If no packets are shown the sender has not sent any weather packets the latest 10 day(s).
| Time | Temp. | Humidity | Pressure | Rain* | Wind** | Luminosity | Snow |
|---|---|---|---|---|---|---|---|
| 1787729189 | 27.22° C | - | 1112 hPa | 0 mm | - | - | - |
| 1787728884 | 27.22° C | - | 1112.1 hPa | 0 mm | - | - | - |
| 1787728578 | 27.22° C | - | 1112.1 hPa | 0 mm | - | - | - |
| 1787728272 | 26.67° C | - | 1112.1 hPa | 0 mm | - | - | - |
| 1787727966 | 26.67° C | - | 1112 hPa | 0 mm | - | - | - |
| 1787727661 | 26.67° C | - | 1112 hPa | 0 mm | - | - | - |
| 1787727356 | 26.67° C | - | 1111.9 hPa | 0 mm | - | - | - |
| 1787727050 | 26.67° C | - | 1112 hPa | 0 mm | - | - | - |
| 1787726745 | 26.67° C | - | 1111.9 hPa | 0 mm | - | - | - |
| 1787726440 | 26.67° C | - | 1111.9 hPa | 0 mm | - | - | - |
| 1787726134 | 26.67° C | - | 1111.9 hPa | 0 mm | - | - | - |
| 1787725829 | 26.67° C | - | 1111.8 hPa | 0 mm | - | - | - |
| 1787725523 | 26.67° C | - | 1111.7 hPa | 0 mm | - | - | - |
| 1787725218 | 26.67° C | - | 1111.6 hPa | 0 mm | - | - | - |
| 1787724912 | 26.67° C | - | 1111.6 hPa | 0 mm | - | - | - |
| 1787724607 | 26.67° C | - | 1111.5 hPa | 0 mm | - | - | - |
| 1787724302 | 26.67° C | - | 1111.5 hPa | 0 mm | - | - | - |
| 1787723996 | 26.67° C | - | 1111.5 hPa | 0 mm | - | - | - |
| 1787723691 | 27.22° C | - | 1111.5 hPa | 0 mm | - | - | - |
| 1787723385 | 27.78° C | - | 1111.5 hPa | 0 mm | - | - | - |
| 1787723080 | 27.78° C | - | 1111.4 hPa | 0 mm | - | - | - |
| 1787722469 | 28.89° C | - | 1111.2 hPa | 0 mm | - | - | - |
| 1787722164 | 28.33° C | - | 1111.5 hPa | 0 mm | - | - | - |
| 1787721853 | 27.22° C | - | 1111.2 hPa | 0 mm | - | - | - |
| 1787721548 | 26.11° C | - | 1111.2 hPa | 0 mm | - | - | - |
* Rain latest hour (hover to see other rain measurements)
** Current wind speed in m/s (hover to see current wind gust speed)